Hobart, OK

2:06 PM CST on February 08, 2016 (GMT -0600)
Hobart Municipal

Weather History for KHBR - November, 2012

Change the Weather History Date:

Saturday, November 3, 2012

  Actual Average Record
Temperature  
Mean Temperature 56 °F -  
Max Temperature 68 °F 61 °F 88 °F (2005)
Min Temperature 45 °F 42 °F 32 °F (2011)
Degree Days  
Heating Degree Days 10    
Growing Degree Days 6 (Base 50)    
Moisture  
Dew Point 36 °F    
Average Humidity 51    
Maximum Humidity 71    
Minimum Humidity 30    
Precipitation  
Precipitation 0.00 in - - ()
Sea Level Pressure  
Sea Level Pressure 30.11 in    
Wind  
Wind Speed 13 mph (NE)    
Max Wind Speed 17 mph    
Max Gust Speed 23 mph    
Visibility 10 miles    
Events      
Averages and records for this station are not official NWS values.
T = Trace of Precipitation, MM = Missing Value Source: NWS Daily Summary

Daily Weather History Graph

Daily Weather History Graph

Search for Another Location

Airport or City:

Trip Planner

Search our weather history database for the weather conditions in past years. The results will help you decide how hot, cold, wet, or windy it might be!

Date:

Astronomy

Nov. 03, 2012 Rise Set
Actual Time 7:59 AM CDT 6:39 PM CDT
Civil Twilight 7:33 AM CDT 7:05 PM CDT
Nautical Twilight 7:03 AM CDT 7:35 PM CDT
Astronomical Twilight 6:33 AM CDT 8:05 PM CDT
Moon 10:25 PM CDT (11/3) 12:00 PM CDT (11/3)
Length of Visible Light 11h 32m
Length of Day
10h 39m
Waning Gibbous, 80% of the Moon is Illuminated
Nov 3
Waning Gibbous
Nov 6
Last Quarter
Nov 13
New
Nov 20
First Quarter
Nov 28
Full

Hourly Weather History & Observations

Time (CDT) Temp. Windchill Dew Point Humidity Pressure Visibility Wind Dir Wind Speed Gust Speed Precip Events Conditions
12:53 AM 60.1 °F - 42.1 °F 51% 29.96 in 10.0 mi NE 13.8 mph - N/A   Clear
1:53 AM 57.9 °F - 42.1 °F 56% 29.98 in 10.0 mi NE 13.8 mph - N/A   Clear
2:53 AM 55.0 °F - 42.1 °F 62% 29.99 in 10.0 mi NE 11.5 mph - N/A   Clear
3:53 AM 53.1 °F - 41.0 °F 64% 30.01 in 10.0 mi NNE 10.4 mph - N/A   Clear
4:53 AM 51.1 °F - 39.0 °F 63% 30.03 in 10.0 mi NE 12.7 mph - N/A   Clear
5:53 AM 48.9 °F - 37.9 °F 66% 30.06 in 9.0 mi NE 11.5 mph - N/A   Clear
6:53 AM 46.9 °F - 37.0 °F 68% 30.09 in 9.0 mi NNE 12.7 mph - N/A   Clear
7:53 AM 45.0 °F 38.9 °F 36.0 °F 71% 30.14 in 8.0 mi NE 12.7 mph - N/A   Clear
8:53 AM 46.9 °F - 36.0 °F 66% 30.17 in 8.0 mi NNE 12.7 mph - N/A   Clear
9:53 AM 50.0 °F - 36.0 °F 59% 30.18 in 8.0 mi NNE 17.3 mph - N/A   Clear
10:53 AM 53.1 °F - 35.1 °F 50% 30.18 in 9.0 mi NE 16.1 mph - N/A   Clear
11:53 AM 57.9 °F - 35.1 °F 42% 30.17 in 10.0 mi NE 16.1 mph - N/A   Clear
12:53 PM 61.0 °F - 35.1 °F 38% 30.15 in 10.0 mi NE 17.3 mph - N/A   Clear
1:53 PM 64.9 °F - 35.1 °F 33% 30.13 in 10.0 mi NE 17.3 mph 21.9 mph N/A   Clear
2:53 PM 66.0 °F - 35.1 °F 32% 30.11 in 10.0 mi ENE 16.1 mph 23.0 mph N/A   Clear
3:53 PM 66.9 °F - 34.0 °F 30% 30.11 in 10.0 mi ENE 16.1 mph - N/A   Clear
4:53 PM 64.9 °F - 33.1 °F 31% 30.11 in 10.0 mi ENE 16.1 mph - N/A   Clear
5:53 PM 63.0 °F - 33.1 °F 33% 30.12 in 10.0 mi ENE 13.8 mph - N/A   Clear
6:53 PM 57.0 °F - 33.1 °F 40% 30.15 in 10.0 mi ENE 6.9 mph - N/A   Clear
7:53 PM 52.0 °F - 32.0 °F 47% 30.16 in 10.0 mi NNE 6.9 mph - N/A   Clear
8:53 PM 50.0 °F - 32.0 °F 50% 30.17 in 10.0 mi NE 9.2 mph - N/A   Clear
9:53 PM 48.9 °F - 33.1 °F 54% 30.18 in 10.0 mi NNE 8.1 mph - N/A   Clear
10:53 PM 46.9 °F - 33.1 °F 59% 30.18 in 10.0 mi NNE 3.5 mph - N/A   Clear
11:53 PM 46.0 °F 41.9 °F 32.0 °F 58% 30.17 in 10.0 mi NE 8.1 mph - N/A   Clear